Location: Portland
(39.0033°N, 81.7709°W)
Time: 08:30:25
(UTC+00:00)

ACS3 Solar Sail - Visible Passes

Search period start: 12 June 2026 00:00
Search period end: 22 June 2026 00:00
Orbit: 871 x 959 km, 97.2° (Epoch: 11 June)

Date Brightness Start Highest point End Pass type
(mag) Time Alt. Az. Time Alt. Az. Time Alt. Az.
12 Jun 2.9 04:55:45 10° NE 05:00:29 27° E 05:00:29 27° E visible
12 Jun 2.4 06:37:34 10° N 06:42:51 39° WNW 06:43:51 36° W visible
13 Jun 2.7 05:02:34 10° NNE 05:07:36 32° E 05:07:36 32° E visible
13 Jun 2.6 06:44:44 10° N 06:49:49 34° WNW 06:50:58 31° W visible
14 Jun 2.4 05:09:24 10° NNE 05:14:43 37° E 05:14:44 37° E visible
14 Jun 2.8 06:51:54 10° N 06:56:45 29° WNW 06:58:05 27° W visible
15 Jun 2.2 05:16:15 10° NNE 05:21:45 44° E 05:21:49 44° E visible
15 Jun 3.0 06:59:04 10° NNW 07:03:40 25° WNW 07:05:11 23° W visible
16 Jun 2.0 05:23:08 10° NNE 05:28:45 52° E 05:28:54 51° ESE visible
16 Jun 3.2 07:06:17 10° NNW 07:10:34 22° WNW 07:12:16 19° W visible
17 Jun 1.7 05:30:01 10° NNE 05:35:45 61° E 05:35:58 60° ESE visible
17 Jun 3.4 07:13:31 10° NNW 07:17:27 19° WNW 07:19:20 16° W visible
18 Jun 1.6 05:36:55 10° NNE 05:42:42 71° E 05:43:01 69° SE visible
18 Jun 3.5 07:20:50 10° NNW 07:24:17 17° WNW 07:26:22 14° W visible
19 Jun 1.5 05:43:50 10° NNE 05:49:39 82° ESE 05:50:03 77° SSE visible
19 Jun 3.7 07:28:13 10° NNW 07:31:07 14° WNW 07:33:24 11° W visible
20 Jun 3.8 04:11:40 10° ENE 04:13:42 12° E 04:13:42 12° E visible
20 Jun 1.5 05:50:44 10° N 05:56:34 86° WNW 05:57:04 76° SSW visible
20 Jun 3.8 07:35:47 10° NW 07:37:55 12° WNW 07:40:03 10° W visible
21 Jun 3.6 04:17:43 10° ENE 04:20:43 14° E 04:20:43 14° E visible
21 Jun 1.6 05:57:39 10° N 06:03:27 75° WNW 06:04:04 68° WSW visible
21 Jun 4.0 07:44:02 10° NW 07:44:41 10° WNW 07:45:20 10° WNW visible
